Time,TemperatureF,DewpointF,PressureIn,WindDirection,WindDirectionDegrees,WindSpeedMPH,WindSpeedGustMPH,Humidity,HourlyPrecipIn,Conditions,Clouds,dailyrainin,SoftwareType,DateUTC
2013-03-04 00:01:00,43.7,39.8,29.86,East,80,0.0,0.0,86,0.00,,,0.00,Wunderground v.1.15,2013-03-04 08:01:00,
2013-03-04 00:11:00,43.5,39.9,29.86,East,80,0.0,0.0,87,0.00,,,0.00,Wunderground v.1.15,2013-03-04 08:11:00,
2013-03-04 00:21:00,43.4,39.8,29.87,East,80,0.0,0.0,87,0.00,,,0.00,Wunderground v.1.15,2013-03-04 08:21:00,
2013-03-04 00:31:00,43.4,39.8,29.87,East,80,0.0,0.0,87,0.00,,,0.00,Wunderground v.1.15,2013-03-04 08:31:00,
2013-03-04 00:51:00,43.6,40.6,29.87,East,80,0.0,0.0,89,0.00,,,0.00,Wunderground v.1.15,2013-03-04 08:51:00,
2013-03-04 01:01:00,43.7,40.7,29.88,East,80,0.0,0.0,89,0.00,,,0.00,Wunderground v.1.15,2013-03-04 09:01:00,
2013-03-04 01:11:00,43.6,40.6,29.88,East,80,0.0,0.0,89,0.00,,,0.00,Wunderground v.1.15,2013-03-04 09:11:00,
2013-03-04 01:20:00,43.6,40.6,29.88,East,85,0.0,0.0,89,0.00,,,0.00,Wunderground v.1.15,2013-03-04 09:20:00,
2013-03-04 01:26:00,43.5,40.8,29.88,East,94,0.0,0.0,90,0.00,,,0.00,Wunderground v.1.15,2013-03-04 09:26:00,
2013-03-04 01:36:00,43.4,40.7,29.88,East,94,0.0,0.0,90,0.00,,,0.00,Wunderground v.1.15,2013-03-04 09:36:00,
2013-03-04 01:45:00,43.3,40.6,29.88,East,94,0.0,0.0,90,0.00,,,0.00,Wunderground v.1.15,2013-03-04 09:45:00,
2013-03-04 01:51:00,43.3,40.6,29.89,East,94,0.0,0.0,90,0.00,,,0.00,Wunderground v.1.15,2013-03-04 09:51:00,
2013-03-04 02:01:00,43.3,40.6,29.89,East,94,0.0,0.0,90,0.00,,,0.00,Wunderground v.1.15,2013-03-04 10:01:00,
2013-03-04 02:10:00,43.2,40.5,29.88,East,94,0.0,0.0,90,0.00,,,0.00,Wunderground v.1.15,2013-03-04 10:10:00,
2013-03-04 02:16:00,43.2,40.5,29.88,East,94,0.0,0.0,90,0.00,,,0.00,Wunderground v.1.15,2013-03-04 10:16:00,
2013-03-04 02:25:00,43.2,40.5,29.88,East,94,0.0,0.0,90,0.00,,,0.00,Wunderground v.1.15,2013-03-04 10:25:00,
2013-03-04 02:35:00,43.2,40.5,29.88,East,94,0.0,0.0,90,0.00,,,0.00,Wunderground v.1.15,2013-03-04 10:35:00,
2013-03-04 02:41:00,43.1,40.4,29.88,East,94,0.0,0.0,90,0.00,,,0.00,Wunderground v.1.15,2013-03-04 10:41:00,
2013-03-04 02:51:00,43.1,40.4,29.88,East,94,0.0,0.0,90,0.00,,,0.00,Wunderground v.1.15,2013-03-04 10:51:00,
2013-03-04 03:01:00,43.2,40.5,29.88,East,94,0.0,0.0,90,0.00,,,0.00,Wunderground v.1.15,2013-03-04 11:01:00,
2013-03-04 03:06:00,43.2,40.5,29.88,East,94,0.0,0.0,90,0.00,,,0.00,Wunderground v.1.15,2013-03-04 11:06:00,
2013-03-04 03:16:00,43.3,40.6,29.88,East,94,0.0,0.0,90,0.00,,,0.00,Wunderground v.1.15,2013-03-04 11:16:00,
2013-03-04 03:26:00,43.3,40.6,29.88,East,94,0.0,0.0,90,0.00,,,0.00,Wunderground v.1.15,2013-03-04 11:26:00,
2013-03-04 03:31:00,43.4,40.7,29.87,East,94,0.0,0.0,90,0.00,,,0.00,Wunderground v.1.15,2013-03-04 11:31:00,
2013-03-04 03:41:00,43.4,40.9,29.88,East,94,0.0,0.0,91,0.00,,,0.00,Wunderground v.1.15,2013-03-04 11:41:00,
2013-03-04 03:51:00,43.4,40.9,29.87,East,94,0.0,0.0,91,0.00,,,0.00,Wunderground v.1.15,2013-03-04 11:51:00,
2013-03-04 04:01:00,43.4,40.9,29.88,East,94,0.0,0.0,91,0.00,,,0.00,Wunderground v.1.15,2013-03-04 12:01:00,
2013-03-04 04:11:00,43.3,40.8,29.88,East,94,0.0,0.0,91,0.00,,,0.00,Wunderground v.1.15,2013-03-04 12:11:00,
2013-03-04 04:21:00,43.2,40.5,29.88,East,94,0.0,0.0,90,0.00,,,0.00,Wunderground v.1.15,2013-03-04 12:21:00,
2013-03-04 04:31:00,43.1,40.4,29.88,East,94,0.0,0.0,90,0.00,,,0.00,Wunderground v.1.15,2013-03-04 12:31:00,
2013-03-04 04:36:00,42.9,40.2,29.89,East,94,0.0,0.0,90,0.00,,,0.00,Wunderground v.1.15,2013-03-04 12:36:00,
2013-03-04 04:46:00,42.8,40.1,29.89,East,94,0.0,0.0,90,0.00,,,0.00,Wunderground v.1.15,2013-03-04 12:46:00,
2013-03-04 04:56:00,42.7,40.3,29.89,East,94,0.0,0.0,91,0.00,,,0.00,Wunderground v.1.15,2013-03-04 12:56:00,
2013-03-04 05:01:00,42.7,40.3,29.89,East,94,0.0,0.0,91,0.00,,,0.00,Wunderground v.1.15,2013-03-04 13:01:00,
2013-03-04 05:11:00,42.7,40.3,29.89,East,94,0.0,0.0,91,0.00,,,0.00,Wunderground v.1.15,2013-03-04 13:11:00,
2013-03-04 05:16:00,42.7,40.3,29.89,East,94,0.0,0.0,91,0.00,,,0.00,Wunderground v.1.15,2013-03-04 13:16:00,
2013-03-04 05:26:00,42.7,40.3,29.89,East,94,0.0,0.0,91,0.00,,,0.00,Wunderground v.1.15,2013-03-04 13:26:00,
2013-03-04 05:36:00,42.7,40.3,29.89,East,94,0.0,0.0,91,0.00,,,0.00,Wunderground v.1.15,2013-03-04 13:36:00,
2013-03-04 05:41:00,42.6,40.2,29.90,East,94,0.0,0.0,91,0.00,,,0.00,Wunderground v.1.15,2013-03-04 13:41:00,
2013-03-04 05:51:00,42.6,40.2,29.90,East,94,0.0,0.0,91,0.00,,,0.00,Wunderground v.1.15,2013-03-04 13:51:00,
2013-03-04 06:01:00,42.6,40.2,29.90,East,94,0.0,0.0,91,0.00,,,0.00,Wunderground v.1.15,2013-03-04 14:01:00,
2013-03-04 06:06:00,42.5,40.1,29.90,East,94,0.0,0.0,91,0.00,,,0.00,Wunderground v.1.15,2013-03-04 14:06:00,
2013-03-04 06:16:00,42.6,40.2,29.90,East,94,0.0,0.0,91,0.00,,,0.00,Wunderground v.1.15,2013-03-04 14:16:00,
2013-03-04 06:26:00,42.5,40.1,29.90,East,94,0.0,0.0,91,0.00,,,0.00,Wunderground v.1.15,2013-03-04 14:26:00,
2013-03-04 06:36:00,42.5,40.1,29.90,East,94,0.0,0.0,91,0.00,,,0.00,Wunderground v.1.15,2013-03-04 14:36:00,
2013-03-04 06:46:00,42.4,40.0,29.90,East,94,0.0,0.0,91,0.00,,,0.00,Wunderground v.1.15,2013-03-04 14:46:00,
2013-03-04 06:56:00,42.3,39.9,29.90,East,94,0.0,0.0,91,0.00,,,0.00,Wunderground v.1.15,2013-03-04 14:56:00,
2013-03-04 07:01:00,42.2,39.8,29.90,East,94,0.0,0.0,91,0.00,,,0.00,Wunderground v.1.15,2013-03-04 15:01:00,
2013-03-04 07:11:00,42.2,39.8,29.91,East,94,0.0,0.0,91,0.00,,,0.00,Wunderground v.1.15,2013-03-04 15:11:00,
2013-03-04 07:20:00,42.2,39.8,29.91,East,94,0.0,0.0,91,0.00,,,0.00,Wunderground v.1.15,2013-03-04 15:20:00,
2013-03-04 07:30:00,42.2,39.8,29.91,East,94,0.0,0.0,91,0.00,,,0.00,Wunderground v.1.15,2013-03-04 15:30:00,
2013-03-04 07:35:00,42.3,39.9,29.92,East,94,0.0,0.0,91,0.00,,,0.00,Wunderground v.1.15,2013-03-04 15:35:00,
2013-03-04 07:45:00,42.3,39.9,29.91,East,94,0.0,0.0,91,0.00,,,0.00,Wunderground v.1.15,2013-03-04 15:45:00,
2013-03-04 07:55:00,42.3,39.9,29.92,East,94,0.0,0.0,91,0.00,,,0.00,Wunderground v.1.15,2013-03-04 15:55:00,
2013-03-04 08:01:00,42.4,40.0,29.92,East,94,0.0,0.0,91,0.00,,,0.00,Wunderground v.1.15,2013-03-04 16:01:00,
2013-03-04 08:10:00,42.4,40.0,29.93,East,94,0.0,0.0,91,0.00,,,0.00,Wunderground v.1.15,2013-03-04 16:10:00,
2013-03-04 08:15:00,42.5,40.1,29.93,East,94,0.0,0.0,91,0.00,,,0.00,Wunderground v.1.15,2013-03-04 16:15:00,
2013-03-04 08:25:00,42.7,40.3,29.93,East,94,0.0,0.0,91,0.00,,,0.00,Wunderground v.1.15,2013-03-04 16:25:00,
2013-03-04 08:35:00,42.9,40.5,29.93,East,94,0.0,0.0,91,0.00,,,0.00,Wunderground v.1.15,2013-03-04 16:35:00,
2013-03-04 08:41:00,43.0,40.6,29.93,East,94,0.0,0.0,91,0.00,,,0.00,Wunderground v.1.15,2013-03-04 16:41:00,
2013-03-04 08:52:00,43.1,40.9,29.93,East,94,0.0,0.0,92,0.00,,,0.00,Wunderground v.1.15,2013-03-04 16:52:00,
2013-03-04 09:01:00,43.3,41.1,29.93,East,94,0.0,0.0,92,0.00,,,0.00,Wunderground v.1.15,2013-03-04 17:01:00,
2013-03-04 09:11:00,43.5,41.3,29.93,East,90,0.0,0.0,92,0.00,,,0.00,Wunderground v.1.15,2013-03-04 17:11:00,
2013-03-04 09:16:00,43.6,41.4,29.93,East,90,0.0,0.0,92,0.00,,,0.00,Wunderground v.1.15,2013-03-04 17:16:00,
2013-03-04 09:26:00,43.7,41.5,29.94,East,88,0.0,0.0,92,0.00,,,0.00,Wunderground v.1.15,2013-03-04 17:26:00,
2013-03-04 09:36:00,43.8,41.6,29.93,East,88,0.0,0.0,92,0.00,,,0.00,Wunderground v.1.15,2013-03-04 17:36:00,
2013-03-04 09:46:00,44.1,41.9,29.93,East,88,0.0,0.0,92,0.00,,,0.00,Wunderground v.1.15,2013-03-04 17:46:00,
2013-03-04 09:56:00,44.2,42.0,29.93,East,88,0.0,0.0,92,0.00,,,0.00,Wunderground v.1.15,2013-03-04 17:56:00,
2013-03-04 10:01:00,44.3,42.1,29.93,East,88,0.0,0.0,92,0.00,,,0.00,Wunderground v.1.15,2013-03-04 18:01:00,
2013-03-04 10:11:00,44.5,42.3,29.93,East,88,0.0,0.0,92,0.00,,,0.00,Wunderground v.1.15,2013-03-04 18:11:00,
2013-03-04 10:21:00,44.5,42.3,29.93,East,88,0.0,0.0,92,0.00,,,0.00,Wunderground v.1.15,2013-03-04 18:21:00,
2013-03-04 10:26:00,44.7,42.5,29.93,East,88,0.0,0.0,92,0.00,,,0.00,Wunderground v.1.15,2013-03-04 18:26:00,
2013-03-04 10:31:00,44.7,42.5,29.93,East,88,0.0,0.0,92,0.00,,,0.00,Wunderground v.1.15,2013-03-04 18:31:00,
2013-03-04 10:36:00,44.9,42.7,29.93,East,89,0.0,0.0,92,0.00,,,0.00,Wunderground v.1.15,2013-03-04 18:36:00,
2013-03-04 10:41:00,45.0,42.8,29.93,East,89,0.0,0.0,92,0.00,,,0.00,Wunderground v.1.15,2013-03-04 18:41:00,
2013-03-04 10:51:00,45.1,42.9,29.93,East,89,0.0,0.0,92,0.00,,,0.00,Wunderground v.1.15,2013-03-04 18:51:00,
2013-03-04 11:01:00,45.3,43.1,29.93,East,89,0.0,0.0,92,0.00,,,0.00,Wunderground v.1.15,2013-03-04 19:01:00,
2013-03-04 11:11:00,45.5,43.3,29.94,East,89,0.0,0.0,92,0.00,,,0.00,Wunderground v.1.15,2013-03-04 19:11:00,
2013-03-04 11:21:00,45.6,43.4,29.94,East,87,0.0,0.0,92,0.00,,,0.00,Wunderground v.1.15,2013-03-04 19:21:00,
2013-03-04 11:26:00,45.6,43.4,29.94,ESE,115,0.0,0.0,92,0.00,,,0.00,Wunderground v.1.15,2013-03-04 19:26:00,
2013-03-04 11:36:00,46.0,43.8,29.93,SE,132,0.0,0.0,92,0.00,,,0.00,Wunderground v.1.15,2013-03-04 19:36:00,
2013-03-04 11:46:00,46.2,44.0,29.93,East,84,0.0,0.0,92,0.00,,,0.00,Wunderground v.1.15,2013-03-04 19:46:00,
2013-03-04 11:56:00,46.4,44.2,29.93,East,91,1.0,1.0,92,0.00,,,0.00,Wunderground v.1.15,2013-03-04 19:56:00,
2013-03-04 12:01:00,46.4,43.9,29.92,ESE,107,1.0,2.0,91,0.00,,,0.00,Wunderground v.1.15,2013-03-04 20:01:00,
2013-03-04 12:11:00,46.7,44.2,29.91,ENE,65,1.0,1.0,91,0.00,,,0.00,Wunderground v.1.15,2013-03-04 20:11:00,
2013-03-04 12:21:00,47.0,44.2,29.90,NE,53,3.0,5.0,90,0.00,,,0.00,Wunderground v.1.15,2013-03-04 20:21:00,
2013-03-04 12:31:00,47.2,44.1,29.90,NE,48,1.0,3.0,89,0.00,,,0.00,Wunderground v.1.15,2013-03-04 20:31:00,
2013-03-04 12:41:00,47.4,44.0,29.90,East,98,2.0,2.0,88,0.00,,,0.00,Wunderground v.1.15,2013-03-04 20:41:00,
2013-03-04 12:51:00,47.7,44.3,29.90,ESE,113,1.0,3.0,88,0.00,,,0.00,Wunderground v.1.15,2013-03-04 20:51:00,
2013-03-04 13:01:00,48.1,44.7,29.89,ESE,105,1.0,1.0,88,0.00,,,0.00,Wunderground v.1.15,2013-03-04 21:01:00,
2013-03-04 13:10:00,48.5,44.8,29.89,SE,136,1.0,1.0,87,0.00,,,0.00,Wunderground v.1.15,2013-03-04 21:10:00,
2013-03-04 13:20:00,48.7,44.1,29.89,East,88,2.0,3.0,84,0.00,,,0.00,Wunderground v.1.15,2013-03-04 21:20:00,
2013-03-04 13:30:00,48.7,44.1,29.89,East,101,2.0,2.0,84,0.00,,,0.00,Wunderground v.1.15,2013-03-04 21:30:00,
2013-03-04 13:37:00,48.8,44.5,29.89,East,87,2.0,2.0,85,0.00,,,0.00,Wunderground v.1.15,2013-03-04 21:37:00,
2013-03-04 13:46:00,49.1,44.2,29.89,NE,35,3.0,5.0,83,0.00,,,0.00,Wunderground v.1.15,2013-03-04 21:46:00,
2013-03-04 13:56:00,49.3,44.4,29.88,ENE,59,2.0,3.0,83,0.00,,,0.00,Wunderground v.1.15,2013-03-04 21:56:00,
2013-03-04 14:02:00,49.7,44.4,29.88,East,99,2.0,2.0,82,0.00,,,0.00,Wunderground v.1.15,2013-03-04 22:02:00,
2013-03-04 14:11:00,49.8,44.5,29.88,East,94,2.0,2.0,82,0.00,,,0.00,Wunderground v.1.15,2013-03-04 22:11:00,
2013-03-04 14:22:00,50.6,45.0,29.88,East,86,3.0,3.0,81,0.00,,,0.00,Wunderground v.1.15,2013-03-04 22:22:00,
2013-03-04 14:31:00,50.9,44.9,29.88,SSE,164,2.0,2.0,80,0.00,,,0.00,Wunderground v.1.15,2013-03-04 22:31:00,
2013-03-04 14:41:00,51.0,45.0,29.88,ESE,117,2.0,2.0,80,0.00,,,0.00,Wunderground v.1.15,2013-03-04 22:41:00,
2013-03-04 14:51:00,51.8,45.5,29.87,SE,128,1.0,1.0,79,0.00,,,0.00,Wunderground v.1.15,2013-03-04 22:51:00,
2013-03-04 15:01:00,51.9,45.6,29.88,SSE,147,1.0,2.0,79,0.00,,,0.00,Wunderground v.1.15,2013-03-04 23:01:00,
2013-03-04 15:11:00,52.0,45.7,29.87,ENE,69,0.0,1.0,79,0.00,,,0.00,Wunderground v.1.15,2013-03-04 23:11:00,
2013-03-04 15:16:00,52.1,45.8,29.87,ENE,76,2.0,2.0,79,0.00,,,0.00,Wunderground v.1.15,2013-03-04 23:16:00,
2013-03-04 15:26:00,52.4,45.7,29.86,East,88,3.0,3.0,78,0.00,,,0.00,Wunderground v.1.15,2013-03-04 23:26:00,
2013-03-04 15:36:00,52.5,45.8,29.86,ENE,63,2.0,3.0,78,0.00,,,0.00,Wunderground v.1.15,2013-03-04 23:36:00,
2013-03-04 15:46:00,52.7,46.0,29.86,ENE,59,1.0,2.0,78,0.00,,,0.00,Wunderground v.1.15,2013-03-04 23:46:00,
2013-03-04 15:56:00,52.8,46.1,29.86,East,92,1.0,1.0,78,0.00,,,0.00,Wunderground v.1.15,2013-03-04 23:56:00,
2013-03-04 16:01:00,52.9,46.2,29.86,East,99,0.0,1.0,78,0.00,,,0.00,Wunderground v.1.15,2013-03-05 00:01:00,
2013-03-04 16:11:00,53.4,45.7,29.86,SE,139,2.0,2.0,75,0.00,,,0.00,Wunderground v.1.15,2013-03-05 00:11:00,
2013-03-04 16:21:00,53.5,46.1,29.85,NE,39,1.0,2.0,76,0.00,,,0.00,Wunderground v.1.15,2013-03-05 00:21:00,
2013-03-04 16:31:00,53.5,46.1,29.85,NE,40,0.0,1.0,76,0.00,,,0.00,Wunderground v.1.15,2013-03-05 00:31:00,
2013-03-04 16:41:00,53.5,46.1,29.84,ESE,123,1.0,1.0,76,0.00,,,0.00,Wunderground v.1.15,2013-03-05 00:41:00,
2013-03-04 16:51:00,53.5,45.4,29.85,South,169,2.0,2.0,74,0.00,,,0.00,Wunderground v.1.15,2013-03-05 00:51:00,
2013-03-04 17:01:00,53.5,45.8,29.85,East,97,0.0,1.0,75,0.00,,,0.00,Wunderground v.1.15,2013-03-05 01:01:00,
2013-03-04 17:11:00,53.3,45.6,29.84,SE,125,1.0,1.0,75,0.00,,,0.00,Wunderground v.1.15,2013-03-05 01:11:00,
2013-03-04 17:21:00,53.2,45.5,29.84,SE,124,0.0,0.0,75,0.00,,,0.00,Wunderground v.1.15,2013-03-05 01:21:00,
2013-03-04 17:30:00,53.1,45.4,29.84,SE,126,0.0,0.0,75,0.00,,,0.00,Wunderground v.1.15,2013-03-05 01:30:00,
2013-03-04 17:36:00,52.9,45.2,29.84,ESE,115,0.0,0.0,75,0.00,,,0.00,Wunderground v.1.15,2013-03-05 01:36:00,
2013-03-04 17:46:00,52.8,45.1,29.84,ESE,107,0.0,0.0,75,0.00,,,0.00,Wunderground v.1.15,2013-03-05 01:46:00,
2013-03-04 17:56:00,52.3,44.6,29.84,NE,36,0.0,0.0,75,0.00,,,0.00,Wunderground v.1.15,2013-03-05 01:56:00,
2013-03-04 18:01:00,52.1,44.4,29.84,SE,136,0.0,1.0,75,0.00,,,0.00,Wunderground v.1.15,2013-03-05 02:01:00,
2013-03-04 18:10:00,51.5,43.8,29.84,SE,135,0.0,0.0,75,0.00,,,0.00,Wunderground v.1.15,2013-03-05 02:10:00,
2013-03-04 18:21:00,50.9,43.6,29.84,SE,141,0.0,0.0,76,0.00,,,0.00,Wunderground v.1.15,2013-03-05 02:21:00,
2013-03-04 18:30:00,50.4,43.1,29.84,ESE,118,0.0,0.0,76,0.00,,,0.00,Wunderground v.1.15,2013-03-05 02:30:00,
2013-03-04 18:41:00,49.8,42.9,29.84,ESE,121,1.0,1.0,77,0.00,,,0.00,Wunderground v.1.15,2013-03-05 02:41:00,
2013-03-04 18:50:00,49.3,42.4,29.84,SE,145,0.0,2.0,77,0.00,,,0.00,Wunderground v.1.15,2013-03-05 02:50:00,
2013-03-04 19:00:00,48.8,42.2,29.84,ESE,119,0.0,1.0,78,0.00,,,0.00,Wunderground v.1.15,2013-03-05 03:00:00,
2013-03-04 19:05:00,48.6,42.0,29.84,ESE,119,0.0,1.0,78,0.00,,,0.00,Wunderground v.1.15,2013-03-05 03:05:00,
2013-03-04 19:15:00,48.2,41.7,29.84,ESE,121,0.0,0.0,78,0.00,,,0.00,Wunderground v.1.15,2013-03-05 03:15:00,
2013-03-04 19:25:00,47.9,41.4,29.84,ESE,121,0.0,0.0,78,0.00,,,0.00,Wunderground v.1.15,2013-03-05 03:25:00,
2013-03-04 19:30:00,47.8,41.3,29.85,ESE,121,0.0,0.0,78,0.00,,,0.00,Wunderground v.1.15,2013-03-05 03:30:00,
2013-03-04 19:37:00,47.5,41.3,29.85,ESE,121,0.0,0.0,79,0.00,,,0.00,Wunderground v.1.15,2013-03-05 03:37:00,
2013-03-04 19:46:00,47.0,40.8,29.85,ESE,121,0.0,0.0,79,0.00,,,0.00,Wunderground v.1.15,2013-03-05 03:46:00,
2013-03-04 19:56:00,46.5,41.0,29.85,ESE,121,0.0,0.0,81,0.00,,,0.00,Wunderground v.1.15,2013-03-05 03:56:00,
2013-03-04 20:02:00,46.3,40.8,29.85,ESE,121,0.0,0.0,81,0.00,,,0.00,Wunderground v.1.15,2013-03-05 04:02:00,
2013-03-04 20:11:00,45.7,40.5,29.85,ESE,121,0.0,0.0,82,0.00,,,0.00,Wunderground v.1.15,2013-03-05 04:11:00,
2013-03-04 20:21:00,45.3,40.4,29.85,ESE,121,0.0,0.0,83,0.00,,,0.00,Wunderground v.1.15,2013-03-05 04:21:00,
2013-03-04 20:26:00,45.1,40.6,29.85,ESE,121,0.0,0.0,84,0.00,,,0.00,Wunderground v.1.15,2013-03-05 04:26:00,
2013-03-04 20:36:00,44.8,40.3,29.85,ESE,121,0.0,0.0,84,0.00,,,0.00,Wunderground v.1.15,2013-03-05 04:36:00,
2013-03-04 20:46:00,44.5,40.0,29.85,ESE,121,0.0,0.0,84,0.00,,,0.00,Wunderground v.1.15,2013-03-05 04:46:00,
2013-03-04 20:56:00,44.2,39.7,29.86,ESE,121,0.0,0.0,84,0.00,,,0.00,Wunderground v.1.15,2013-03-05 04:56:00,
2013-03-04 21:01:00,44.1,39.9,29.86,ESE,121,0.0,0.0,85,0.00,,,0.00,Wunderground v.1.15,2013-03-05 05:01:00,
2013-03-04 21:06:00,43.9,39.7,29.86,ESE,121,0.0,0.0,85,0.00,,,0.00,Wunderground v.1.15,2013-03-05 05:06:00,
2013-03-04 21:11:00,43.8,39.3,29.86,ESE,121,0.0,0.0,84,0.00,,,0.00,Wunderground v.1.15,2013-03-05 05:11:00,
2013-03-04 21:16:00,43.6,39.1,29.86,ESE,121,0.0,0.0,84,0.00,,,0.00,Wunderground v.1.15,2013-03-05 05:16:00,
2013-03-04 21:26:00,43.2,38.7,29.86,ESE,121,0.0,0.0,84,0.00,,,0.00,Wunderground v.1.15,2013-03-05 05:26:00,
2013-03-04 21:36:00,42.8,38.3,29.86,ESE,121,0.0,0.0,84,0.00,,,0.00,Wunderground v.1.15,2013-03-05 05:36:00,
2013-03-04 21:46:00,42.4,37.9,29.86,ESE,121,0.0,0.0,84,0.00,,,0.00,Wunderground v.1.15,2013-03-05 05:46:00,
2013-03-04 21:51:00,42.2,38.0,29.86,ESE,121,0.0,0.0,85,0.00,,,0.00,Wunderground v.1.15,2013-03-05 05:51:00,
2013-03-04 22:01:00,41.9,38.0,29.86,ESE,121,0.0,0.0,86,0.00,,,0.00,Wunderground v.1.15,2013-03-05 06:01:00,
2013-03-04 22:11:00,41.7,37.8,29.86,ESE,121,0.0,0.0,86,0.00,,,0.00,Wunderground v.1.15,2013-03-05 06:11:00,
2013-03-04 22:21:00,41.4,37.5,29.86,ESE,121,0.0,0.0,86,0.00,,,0.00,Wunderground v.1.15,2013-03-05 06:21:00,
2013-03-04 22:31:00,41.1,37.2,29.85,ESE,121,0.0,0.0,86,0.00,,,0.00,Wunderground v.1.15,2013-03-05 06:31:00,
2013-03-04 22:41:00,40.7,36.8,29.85,ESE,121,0.0,0.0,86,0.00,,,0.00,Wunderground v.1.15,2013-03-05 06:41:00,
2013-03-04 22:51:00,40.5,36.6,29.85,ESE,121,0.0,0.0,86,0.00,,,0.00,Wunderground v.1.15,2013-03-05 06:51:00,
2013-03-04 22:56:00,40.4,36.5,29.85,ESE,121,0.0,0.0,86,0.00,,,0.00,Wunderground v.1.15,2013-03-05 06:56:00,
2013-03-04 23:01:00,40.2,36.6,29.85,ESE,121,0.0,0.0,87,0.00,,,0.00,Wunderground v.1.15,2013-03-05 07:01:00,
2013-03-04 23:11:00,40.1,36.5,29.85,ESE,121,0.0,0.0,87,0.00,,,0.00,Wunderground v.1.15,2013-03-05 07:11:00,
2013-03-04 23:21:00,39.9,36.3,29.85,ESE,121,0.0,0.0,87,0.00,,,0.00,Wunderground v.1.15,2013-03-05 07:21:00,
2013-03-04 23:31:00,39.8,36.5,29.85,ESE,121,0.0,0.0,88,0.00,,,0.00,Wunderground v.1.15,2013-03-05 07:31:00,
2013-03-04 23:41:00,39.7,36.4,29.85,ESE,121,0.0,0.0,88,0.00,,,0.00,Wunderground v.1.15,2013-03-05 07:41:00,
2013-03-04 23:50:00,39.6,36.3,29.85,ESE,121,0.0,0.0,88,0.00,,,0.00,Wunderground v.1.15,2013-03-05 07:50:00,